Time,TemperatureF,DewpointF,PressureIn,WindDirection,WindDirectionDegrees,WindSpeedMPH,WindSpeedGustMPH,Humidity,HourlyPrecipIn,Conditions,Clouds,dailyrainin,SoftwareType,DateUTC
2014-02-08 00:02:00,4.6,-1.0,30.32,WSW,254,2.0,3.0,77,0.00,,,0.00,weatherlink.com 1.10,2014-02-08 05:02:00,
2014-02-08 00:17:00,3.0,-3.0,30.32,South,188,0.0,5.0,77,0.00,,,0.00,weatherlink.com 1.10,2014-02-08 05:17:00,
2014-02-08 00:33:00,-0.6,-6.0,30.31,South,174,3.0,5.0,77,0.00,,,0.00,weatherlink.com 1.10,2014-02-08 05:33:00,
2014-02-08 00:49:00,-2.3,-8.0,30.31,SW,214,0.0,2.0,78,0.00,,,0.00,weatherlink.com 1.10,2014-02-08 05:49:00,
2014-02-08 01:03:00,-4.0,-9.0,30.32,SW,214,0.0,1.0,79,0.00,,,0.00,weatherlink.com 1.10,2014-02-08 06:03:00,
2014-02-08 01:18:00,-5.4,-10.0,30.32,SW,214,0.0,2.0,80,0.00,,,0.00,weatherlink.com 1.10,2014-02-08 06:18:00,
2014-02-08 01:33:00,-7.4,-12.0,30.32,SW,214,1.0,3.0,79,0.00,,,0.00,weatherlink.com 1.10,2014-02-08 06:33:00,
2014-02-08 01:49:00,-7.5,-11.0,30.32,WNW,286,0.0,1.0,83,0.00,,,0.00,weatherlink.com 1.10,2014-02-08 06:49:00,
2014-02-08 02:04:00,-8.7,-13.0,30.33,WNW,286,0.0,1.0,82,0.00,,,0.00,weatherlink.com 1.10,2014-02-08 07:04:00,
2014-02-08 02:19:00,-10.4,-14.0,30.33,NE,35,1.0,2.0,82,0.00,,,0.00,weatherlink.com 1.10,2014-02-08 07:19:00,
2014-02-08 02:34:00,-8.3,-11.0,30.33,NE,35,0.0,2.0,86,0.00,,,0.00,weatherlink.com 1.10,2014-02-08 07:34:00,
2014-02-08 02:49:00,-9.0,-13.0,30.33,West,275,0.0,4.0,84,0.00,,,0.00,weatherlink.com 1.10,2014-02-08 07:49:00,
2014-02-08 03:03:00,-10.0,-14.0,30.34,West,275,0.0,1.0,83,0.00,,,0.00,weatherlink.com 1.10,2014-02-08 08:03:00,
2014-02-08 03:18:00,-11.9,-16.0,30.35,NE,49,0.0,1.0,82,0.00,,,0.00,weatherlink.com 1.10,2014-02-08 08:18:00,
2014-02-08 03:34:00,-11.2,-15.0,30.35,NE,49,0.0,1.0,84,0.00,,,0.00,weatherlink.com 1.10,2014-02-08 08:34:00,
2014-02-08 03:49:00,-12.3,-16.0,30.35,NE,49,0.0,0.0,82,0.00,,,0.00,weatherlink.com 1.10,2014-02-08 08:49:00,
2014-02-08 04:04:00,-13.5,-17.0,30.35,NE,49,0.0,1.0,82,0.00,,,0.00,weatherlink.com 1.10,2014-02-08 09:04:00,
2014-02-08 04:19:00,-13.8,-18.0,30.36,NE,49,0.0,1.0,83,0.00,,,0.00,weatherlink.com 1.10,2014-02-08 09:19:00,
2014-02-08 04:34:00,-13.3,-17.0,30.36,NE,49,1.0,2.0,83,0.00,,,0.00,weatherlink.com 1.10,2014-02-08 09:34:00,
2014-02-08 04:49:00,-14.3,-18.0,30.36,NE,49,0.0,1.0,82,0.00,,,0.00,weatherlink.com 1.10,2014-02-08 09:49:00,
2014-02-08 05:04:00,-14.3,-18.0,30.37,NE,49,0.0,1.0,82,0.00,,,0.00,weatherlink.com 1.10,2014-02-08 10:04:00,
2014-02-08 05:19:00,-14.5,-19.0,30.37,NE,49,0.0,1.0,81,0.00,,,0.00,weatherlink.com 1.10,2014-02-08 10:19:00,
2014-02-08 05:35:00,-15.5,-20.0,30.38,NE,49,0.0,1.0,81,0.00,,,0.00,weatherlink.com 1.10,2014-02-08 10:35:00,
2014-02-08 05:50:00,-15.9,-20.0,30.37,NE,49,0.0,1.0,81,0.00,,,0.00,weatherlink.com 1.10,2014-02-08 10:50:00,
2014-02-08 06:06:00,-15.8,-20.0,30.38,NE,49,0.0,1.0,82,0.00,,,0.00,weatherlink.com 1.10,2014-02-08 11:06:00,
2014-02-08 06:20:00,-15.8,-20.0,30.38,NE,49,1.0,1.0,82,0.00,,,0.00,weatherlink.com 1.10,2014-02-08 11:20:00,
2014-02-08 06:35:00,-16.6,-21.0,30.38,NE,49,1.0,2.0,81,0.00,,,0.00,weatherlink.com 1.10,2014-02-08 11:35:00,
2014-02-08 06:50:00,-15.7,-20.0,30.38,SW,215,1.0,2.0,82,0.00,,,0.00,weatherlink.com 1.10,2014-02-08 11:50:00,
2014-02-08 07:05:00,-17.6,-22.0,30.38,ESE,117,0.0,3.0,79,0.00,,,0.00,weatherlink.com 1.10,2014-02-08 12:05:00,
2014-02-08 07:20:00,-16.5,-20.0,30.38,South,171,0.0,2.0,82,0.00,,,0.00,weatherlink.com 1.10,2014-02-08 12:20:00,
2014-02-08 07:35:00,-16.9,-21.0,30.39,South,171,1.0,2.0,81,0.00,,,0.00,weatherlink.com 1.10,2014-02-08 12:35:00,
2014-02-08 07:50:00,-17.0,-21.0,30.39,WSW,246,2.0,2.0,80,0.00,,,0.00,weatherlink.com 1.10,2014-02-08 12:50:00,
2014-02-08 08:05:00,-16.8,-21.0,30.39,SSE,167,1.0,2.0,81,0.00,,,0.00,weatherlink.com 1.10,2014-02-08 13:05:00,
2014-02-08 08:22:00,-14.2,-18.0,30.39,SSW,202,0.0,2.0,83,0.00,,,0.00,weatherlink.com 1.10,2014-02-08 13:22:00,
2014-02-08 08:35:00,-9.3,-13.0,30.39,SW,225,3.0,4.0,85,0.00,,,0.00,weatherlink.com 1.10,2014-02-08 13:35:00,
2014-02-08 08:51:00,-6.8,-10.0,30.39,SSW,192,4.0,6.0,84,0.00,,,0.00,weatherlink.com 1.10,2014-02-08 13:51:00,
2014-02-08 09:07:00,-4.6,-8.0,30.38,SSW,201,3.0,7.0,85,0.00,,,0.00,weatherlink.com 1.10,2014-02-08 14:07:00,
2014-02-08 09:21:00,-3.6,-7.0,30.39,South,182,2.0,5.0,85,0.00,,,0.00,weatherlink.com 1.10,2014-02-08 14:21:00,
2014-02-08 09:36:00,-1.7,-5.0,30.39,South,170,3.0,5.0,85,0.00,,,0.00,weatherlink.com 1.10,2014-02-08 14:36:00,
2014-02-08 09:51:00,-0.4,-4.0,30.38,SSE,167,3.0,7.0,84,0.00,,,0.00,weatherlink.com 1.10,2014-02-08 14:51:00,
2014-02-08 10:06:00,0.9,-3.0,30.39,SSW,206,2.0,7.0,84,0.00,,,0.00,weatherlink.com 1.10,2014-02-08 15:06:00,
2014-02-08 10:21:00,3.2,0.0,30.38,SSW,206,5.0,5.0,85,0.00,,,0.00,weatherlink.com 1.10,2014-02-08 15:21:00,
2014-02-08 10:36:00,5.4,1.0,30.38,South,172,3.0,5.0,82,0.00,,,0.00,weatherlink.com 1.10,2014-02-08 15:36:00,
2014-02-08 10:51:00,8.1,3.0,30.38,SW,221,3.0,8.0,79,0.00,,,0.00,weatherlink.com 1.10,2014-02-08 15:51:00,
2014-02-08 11:08:00,10.5,3.0,30.37,South,175,3.0,8.0,73,0.00,,,0.00,weatherlink.com 1.10,2014-02-08 16:08:00,
2014-02-08 11:21:00,11.3,3.0,30.36,WSW,247,0.0,4.0,70,0.00,,,0.00,weatherlink.com 1.10,2014-02-08 16:21:00,
2014-02-08 11:36:00,10.8,3.0,30.35,West,275,7.0,10.0,70,0.00,,,0.00,weatherlink.com 1.10,2014-02-08 16:36:00,
2014-02-08 11:52:00,11.2,3.0,30.34,WNW,284,7.0,9.0,70,0.00,,,0.00,weatherlink.com 1.10,2014-02-08 16:52:00,
2014-02-08 12:06:00,12.1,4.0,30.33,WNW,283,2.0,8.0,70,0.00,,,0.00,weatherlink.com 1.10,2014-02-08 17:06:00,
2014-02-08 12:22:00,13.2,4.0,30.32,West,263,7.0,8.0,68,0.00,,,0.00,weatherlink.com 1.10,2014-02-08 17:22:00,
2014-02-08 12:37:00,13.5,4.0,30.31,West,276,5.0,9.0,65,0.00,,,0.00,weatherlink.com 1.10,2014-02-08 17:37:00,
2014-02-08 12:53:00,14.3,4.0,30.31,WSW,248,7.0,8.0,65,0.00,,,0.00,weatherlink.com 1.10,2014-02-08 17:53:00,
2014-02-08 13:07:00,14.5,4.0,30.30,West,263,3.0,9.0,64,0.00,,,0.00,weatherlink.com 1.10,2014-02-08 18:07:00,
2014-02-08 13:22:00,15.3,5.0,30.30,West,261,5.0,7.0,63,0.00,,,0.00,weatherlink.com 1.10,2014-02-08 18:22:00,
2014-02-08 13:38:00,15.6,5.0,30.30,West,267,3.0,9.0,62,0.00,,,0.00,weatherlink.com 1.10,2014-02-08 18:38:00,
2014-02-08 13:52:00,15.7,4.0,30.30,WNW,286,5.0,8.0,61,0.00,,,0.00,weatherlink.com 1.10,2014-02-08 18:52:00,
2014-02-08 14:07:00,16.3,5.0,30.29,WSW,242,2.0,8.0,60,0.00,,,0.00,weatherlink.com 1.10,2014-02-08 19:07:00,
2014-02-08 14:22:00,16.2,4.0,30.29,West,259,3.0,9.0,60,0.00,,,0.00,weatherlink.com 1.10,2014-02-08 19:22:00,
2014-02-08 14:37:00,16.4,4.0,30.29,WSW,247,4.0,10.0,59,0.00,,,0.00,weatherlink.com 1.10,2014-02-08 19:37:00,
2014-02-08 14:52:00,17.2,5.0,30.28,SW,229,2.0,8.0,59,0.00,,,0.00,weatherlink.com 1.10,2014-02-08 19:52:00,
2014-02-08 15:08:00,16.7,3.0,30.29,WNW,287,7.0,12.0,56,0.00,,,0.00,weatherlink.com 1.10,2014-02-08 20:08:00,
2014-02-08 15:23:00,16.7,4.0,30.29,West,259,5.0,9.0,57,0.00,,,0.00,weatherlink.com 1.10,2014-02-08 20:23:00,
2014-02-08 15:38:00,16.5,4.0,30.29,WNW,288,5.0,7.0,57,0.00,,,0.00,weatherlink.com 1.10,2014-02-08 20:38:00,
2014-02-08 15:53:00,16.2,4.0,30.29,West,269,4.0,7.0,58,0.00,,,0.00,weatherlink.com 1.10,2014-02-08 20:53:00,
2014-02-08 16:08:00,16.4,4.0,30.29,West,275,6.0,7.0,58,0.00,,,0.00,weatherlink.com 1.10,2014-02-08 21:08:00,
2014-02-08 16:23:00,16.4,4.0,30.29,WNW,284,5.0,7.0,58,0.00,,,0.00,weatherlink.com 1.10,2014-02-08 21:23:00,
2014-02-08 16:38:00,16.3,4.0,30.30,WNW,287,3.0,7.0,58,0.00,,,0.00,weatherlink.com 1.10,2014-02-08 21:38:00,
2014-02-08 16:53:00,16.2,4.0,30.30,NNW,328,2.0,4.0,59,0.00,,,0.00,weatherlink.com 1.10,2014-02-08 21:53:00,
2014-02-08 17:08:00,15.8,4.0,30.30,NW,306,1.0,3.0,60,0.00,,,0.00,weatherlink.com 1.10,2014-02-08 22:08:00,
2014-02-08 17:23:00,15.5,4.0,30.30,NW,306,1.0,2.0,60,0.00,,,0.00,weatherlink.com 1.10,2014-02-08 22:23:00,
2014-02-08 17:38:00,14.9,5.0,30.29,NW,306,0.0,2.0,64,0.00,,,0.00,weatherlink.com 1.10,2014-02-08 22:38:00,
2014-02-08 17:54:00,14.9,5.0,30.29,NW,306,1.0,2.0,64,0.00,,,0.00,weatherlink.com 1.10,2014-02-08 22:54:00,
2014-02-08 18:08:00,14.6,5.0,30.29,NNE,20,0.0,2.0,66,0.00,,,0.00,weatherlink.com 1.10,2014-02-08 23:08:00,
2014-02-08 18:23:00,14.3,5.0,30.29,NNE,20,1.0,1.0,67,0.00,,,0.00,weatherlink.com 1.10,2014-02-08 23:23:00,
2014-02-08 18:38:00,14.3,5.0,30.29,NNE,20,0.0,1.0,67,0.00,,,0.00,weatherlink.com 1.10,2014-02-08 23:38:00,
2014-02-08 18:54:00,14.2,5.0,30.28,NNE,20,0.0,2.0,68,0.00,,,0.00,weatherlink.com 1.10,2014-02-08 23:54:00,
2014-02-08 19:09:00,13.6,5.0,30.27,NNE,20,0.0,1.0,69,0.00,,,0.00,weatherlink.com 1.10,2014-02-09 00:09:00,
2014-02-08 19:25:00,11.6,5.0,30.27,NNE,20,0.0,3.0,74,0.00,,,0.00,weatherlink.com 1.10,2014-02-09 00:25:00,
2014-02-08 19:39:00,11.3,5.0,30.27,NNE,20,0.0,2.0,75,0.00,,,0.00,weatherlink.com 1.10,2014-02-09 00:39:00,
2014-02-08 19:54:00,9.9,4.0,30.27,NNE,20,0.0,3.0,77,0.00,,,0.00,weatherlink.com 1.10,2014-02-09 00:54:00,
2014-02-08 20:09:00,10.4,5.0,30.27,NNE,20,0.0,1.0,80,0.00,,,0.00,weatherlink.com 1.10,2014-02-09 01:09:00,
2014-02-08 20:24:00,10.9,5.0,30.27,NNE,20,0.0,2.0,78,0.00,,,0.00,weatherlink.com 1.10,2014-02-09 01:24:00,
2014-02-08 20:39:00,10.8,6.0,30.27,NNE,20,1.0,2.0,79,0.00,,,0.00,weatherlink.com 1.10,2014-02-09 01:39:00,
2014-02-08 20:54:00,11.3,6.0,30.27,NNE,20,0.0,2.0,78,0.00,,,0.00,weatherlink.com 1.10,2014-02-09 01:54:00,
2014-02-08 21:09:00,11.5,6.0,30.27,NNE,20,2.0,3.0,77,0.00,,,0.00,weatherlink.com 1.10,2014-02-09 02:09:00,
2014-02-08 21:24:00,11.0,6.0,30.26,NE,46,0.0,2.0,80,0.00,,,0.00,weatherlink.com 1.10,2014-02-09 02:24:00,
2014-02-08 21:39:00,10.1,5.0,30.27,NE,46,0.0,2.0,78,0.00,,,0.00,weatherlink.com 1.10,2014-02-09 02:39:00,
2014-02-08 21:54:00,9.8,4.0,30.27,NE,46,0.0,1.0,78,0.00,,,0.00,weatherlink.com 1.10,2014-02-09 02:54:00,
2014-02-08 22:09:00,9.5,4.0,30.28,NE,46,0.0,1.0,79,0.00,,,0.00,weatherlink.com 1.10,2014-02-09 03:09:00,
2014-02-08 22:25:00,8.3,3.0,30.27,NNW,344,1.0,4.0,79,0.00,,,0.00,weatherlink.com 1.10,2014-02-09 03:25:00,
2014-02-08 22:39:00,7.5,3.0,30.27,NNW,344,0.0,3.0,81,0.00,,,0.00,weatherlink.com 1.10,2014-02-09 03:39:00,
2014-02-08 22:55:00,8.3,4.0,30.26,East,93,2.0,3.0,83,0.00,,,0.00,weatherlink.com 1.10,2014-02-09 03:55:00,
2014-02-08 23:10:00,8.1,3.0,30.26,SW,228,0.0,3.0,81,0.00,,,0.00,weatherlink.com 1.10,2014-02-09 04:10:00,
2014-02-08 23:25:00,7.5,3.0,30.27,NNW,327,0.0,2.0,81,0.00,,,0.00,weatherlink.com 1.10,2014-02-09 04:25:00,
2014-02-08 23:40:00,7.0,3.0,30.27,NNW,327,0.0,2.0,82,0.00,,,0.00,weatherlink.com 1.10,2014-02-09 04:40:00,
2014-02-08 23:55:00,6.5,2.0,30.26,NNW,327,2.0,2.0,82,0.00,,,0.00,weatherlink.com 1.10,2014-02-09 04:55:00,